Starlink 1667

operational
NORAD ID: 46155 Int'l Des: 2020-057 Owner: SPXS Country: US Constellation: starlink
LEOCIRCULAR

Starlink 1667について

説明を読み込み中...

リアルタイム位置

3D地球を読み込み中...

次回通過

高度履歴

Altitude vs Time

uPlot chart will show altitude changes over time

軌道要素

1 46155U 20057AQ 25308.83336806 .00140849 00000-0 43110-2 0 9997
2 46155 53.0338 101.4754 0007979 145.2710 19.5168 15.32800223 5842
Epoch: Nov 4, 2025 • Age: 5 hours

現在のステータス

高度 488.6 km
速度 7.62 km/s
衛星直下点 -49.16°S, 22.61°W
打ち上げ日 Aug 18, 2020
運用期間 5.2 years
タイプ internet

技術仕様

分類 Payload
質量 260.00 kg
乾燥質量 248.00 kg
総質量 260.00 kg
長さ 0.20 m
直径 2.80 m
スパン 9.00 m
形状 Box + pan
製造者 SPXS
バスタイプ Starlink
フェーズステータス In Orbit
所有者/国 SPXS/US

大規模コンステレーション

Loading constellations...